Location: Veytaux
(46.4185°N, 6.9320°E)
Time: 05:32:48
(UTC+00:00)

DEBRIS - Pass Details

Date: 04 October 2022
Orbit: 310 x 15046 km, 49.5° (Epoch: 28 November)

Event Time Altitude Azimuth Distance (km) Brightness Sun altitude
Rises 01:51:10 0° 156° (SSE) 11,494 9.4 -36.8°
Reaches altitude 10° 02:00:51 10° 147° (SSE) 12,263 9.5 -35.5°
Maximum altitude 03:29:56 43° 92° (E) 16,614 10.6 -22.0°
Drops below altitude 10° 04:51:10 10° 52° (NE) 13,198 10.7 -8.3°
Sets 05:00:17 0° 49° (NE) 12,687 10.6 -6.7°
